Regional Weather Roundup
Issued by NWS

Home | Current Version | Previous Version | Text Only | Print | Product List | Glossary Off
Versions: 1 2 3 4 5 6 7 8 9 10 11 12 13 14 15 16 17 18 19 20 21 22 23 24 25 26 27 28 29 30 31 32 33 34 35 36 37 38 39 40 41 42 43 44 45 46 47 48 49 50

000
ASUS43 KLOT 251203
RWRIL

ILLINOIS REGIONAL WEATHER ROUNDUP
NATIONAL WEATHER SERVICE CHICAGO/ROMEOVILLE IL
700 AM CDT TUE APR 25 2017

NOTE: "FAIR" INDICATES FEW OR NO CLOUDS BELOW 12,000 FEET WITH NO
SIGNIFICANT WEATHER AND/OR OBSTRUCTIONS TO VISIBILITY.

* THESE STATIONS ARE NOT UNDER NWS QUALITY CONTROL. THEY ALSO MAY NOT
  REPORT WEATHER SUCH AS PRECIPITATION OR FOG.

ILZ001-002-007-009-015-016-024-251300-
NORTHWEST ILLINOIS

CITY           SKY/WX    TMP DP  RH WIND       PRES   REMARKS
MOLINE         CLOUDY    54  39  57 S8        29.61S
6HR MIN TEMP:  49; 6HR MAX TEMP:  55;

STERLING*      CLOUDY    55  39  54 SE6       29.65S
SAVANNA*       CLEAR     52  38  58 S5        29.63S
$$

ILZ003-004-008-010-011-017-018-251300-
NORTH CENTRAL ILLINOIS

CITY           SKY/WX    TMP DP  RH WIND       PRES   REMARKS
ROCKFORD       PTCLDY    54  43  66 SE10      29.69S
6HR MIN TEMP:  52; 6HR MAX TEMP:  59;

FREEPORT*      CLEAR     50  40  69 SE10      29.66S
ROCHELLE*      PTCLDY    51  43  73 SE8       29.68R
DE KALB*       SUNNY     52  46  79 SE12      29.69F
PERU*          CLOUDY    54  38  55 SE8       29.68S
$$

ILZ005-006-012>014-019>023-251300-
NORTHEAST ILLINOIS

CITY           SKY/WX    TMP DP  RH WIND       PRES   REMARKS
CHICAGO-OHARE  CLOUDY    57  49  74 SE10      29.70S
6HR MIN TEMP:  52; 6HR MAX TEMP:  58;

CHICAGO-MIDWAY PTSUNNY   58  50  75 S10       29.72S
6HR MIN TEMP:  57; 6HR MAX TEMP:  60;

AURORA         MOSUNNY   53  48  83 SE9       29.70R
6HR MIN TEMP:  50; 6HR MAX TEMP:  54;

LANSING*       PTSUNNY   55  52  88 SE9       29.73F
JOLIET*        MOSUNNY   55  50  84 SE6       29.71S
WAUKEGAN       MOSUNNY   51  46  83 SE9       29.70S
6HR MIN TEMP:  48; 6HR MAX TEMP:  56;

DUPAGE AIRPORT MOSUNNY   55  51  86 S9        29.69S
6HR MIN TEMP:  53; 6HR MAX TEMP:  58;

KANKAKEE*      MOSUNNY   52  48  86 CALM      29.73F
WHEELING       MOSUNNY   56  51  84 S9        29.72S
6HR MIN TEMP:  49; 6HR MAX TEMP:  58;

MORRIS*        SUNNY     56  49  78 CALM      29.69S
ROMEOVILLE*    MOSUNNY   55  52  90 S10       29.71S
NORTHERLY ISL    N/A     56  50  80 SE5         N/A
$$

LMZ740>746-251300-
SOUTHERN LAKE MICHIGAN

STATION/POSITION SKY/WX   TEMP    WIND        PRES    VSBY  WAVE
                          AIR SEA DIR/SP/G                  HT/PER
                          (F)     (DEG/KT/KT) (MB)    (MI)  (FT/S)
SOUTHERN BUOY              46 41  100/ 14/ 16 1007.3          1/ 3
HARRISON CRIB              54     170/ 10/ 11   N/A
BURNHAM HARBOR             56     130/  4/  8   N/A
CALUMET HARBOR             57     160/  8/ 13 1006.1F
BURNS HARBOR               58     150/ 12/ 17 1007.5S
MICHIGAN CITY              56     130/ 13/ 16   N/A
ST. JOSEPH                 53 49  150/ 10/ 14 1008.2R         1/ 2
$$

ILZ025>027-034>036-040-047-049-050-058-095>099-251300-
WEST-CENTRAL ILLINOIS

CITY           SKY/WX    TMP DP  RH WIND       PRES   REMARKS
QUINCY         CLEAR     57  42  57 S10       29.63R
GALESBURG*     CLOUDY    53  42  66 S5        29.64R
MACOMB*        PTCLDY    55  43  63 S10       29.65S
JACKSONVILLE*  CLOUDY    57  46  65 S8        29.66R
PITTSFIELD*    PTCLDY    55  47  73 SE7       29.65F
$$

ILZ028>032-037-038-041>044-048-051>054-059>061-251300-
CENTRAL ILLINOIS

CITY           SKY/WX    TMP DP  RH WIND       PRES   REMARKS
PONTIAC        PTSUNNY   54  47  77 SE7       29.71S
BLOOMINGTON    MOCLDY    52  41  66 SE8       29.71S
DECATUR        CLOUDY    52  45  77 SE5       29.71S
PEORIA         PTCLDY    54  42  64 S5        29.68R
6HR MIN TEMP:  53; 6HR MAX TEMP:  58;

LACON*         CLOUDY    52  37  57 SE5       29.66F
LINCOLN*       CLOUDY    51  42  72 SE3       29.69S
SPRINGFIELD    CLOUDY    57  45  64 S9        29.69S
6HR MIN TEMP:  52; 6HR MAX TEMP:  58;

TAYLORVILLE    PTCLDY    52  45  75 SE6       29.70S
6HR MIN TEMP:  49; 6HR MAX TEMP:  55;

$$

ILZ033-039-045-046-055>057-062-063-251300-
EAST-CENTRAL ILLINOIS

CITY           SKY/WX    TMP DP  RH WIND       PRES   REMARKS
CHAMPAIGN      MOSUNNY   53  46  77 SE8       29.73S
RANTOUL*       PTSUNNY   53  49  84 SE6       29.72F
MATTOON        MOSUNNY   52  48  86 SE7       29.72S
PARIS*         SUNNY     55  52  89 SE6       29.76R
$$

ILZ079-100>102-251300-
SOUTHWEST ILLINOIS

CITY           SKY/WX    TMP DP  RH WIND       PRES   REMARKS
ALTON          MOCLDY    50  45  81 SE6       29.69S
BELLEVILLE     CLEAR     48  48 100 CALM      29.69S
CAHOKIA*       CLEAR     52  46  80 S6        29.69S
SPARTA*        CLEAR     53  50  90 SE6       29.72R
$$

ILZ064>066-069>071-074>076-080>082-084>086-088>090-092>094-251300-
SOUTH-CENTRAL ILLINOIS

CITY           SKY/WX    TMP DP  RH WIND       PRES   REMARKS
CARBONDALE     CLEAR     51  51 100 SE3       29.73S
6HR MIN TEMP:  48; 6HR MAX TEMP:  54;

CAIRO*         CLEAR     54  54  97 CALM      29.74S
EFFINGHAM*     CLOUDY    49  48  95 E5        29.74S
MARION         MOCLDY    55  55 100 SE7       29.74S
MT. VERNON     CLEAR     46  46 100 CALM      29.73S
CENTRALIA*     CLEAR     51  49  92 CALM      29.72R
SALEM*         CLOUDY    54  49  83 CALM      29.73R
METROPOLIS*    CLEAR     54  53  98 CALM      29.76R
$$

ILZ067-068-072-073-078-083-087-091-251300-
SOUTHEAST ILLINOIS

CITY           SKY/WX    TMP DP  RH WIND       PRES   REMARKS
LAWRENCEVILLE  SUNNY     55  53  93 SE5       29.76S
FLORA*         CLEAR     50  48  93 CALM      29.74S
FAIRFIELD*     MOCLDY    53  52  94 CALM      29.73S
HARRISBURG*    PTCLDY    52  52  99 CALM      29.75S
ROBINSON*      SUNNY     52  50  95 CALM      29.76S
CARMI*         SUNNY     52  52 100 CALM      29.75S
$$

ABBREVIATIONS USED IN REMARKS
   TC - TEMPERATURE IN CELSIUS
  WCI - WIND CHILL INDEX
   HX - HEAT INDEX
  VSB - VISIBILITY
$$





USA.gov is the U.S. government's official web portal to all federal, state and local government web resources and services.